This is the latest recevied weather packets stored in our database for station/object KC3WWU. If no packets are shown the sender has not sent any weather packets the latest 10 day(s).
| Time | Temp. | Humidity | Pressure | Rain* | Wind** | Luminosity | Snow |
|---|---|---|---|---|---|---|---|
| 1777983644 | 17.22° C | 70% | 1007.8 hPa | 0 mm | - | 69 W/m² | - |
| 1777983340 | 16.11° C | 72% | 1007.7 hPa | 0 mm | - | 74 W/m² | - |
| 1777983037 | 16.11° C | 73% | 1007.8 hPa | 0 mm | - | 72 W/m² | - |
| 1777982734 | 15.56° C | 75% | 1007.9 hPa | 0 mm | - | 50 W/m² | - |
| 1777982429 | 15.56° C | 76% | 1007.8 hPa | 0 mm | - | 52 W/m² | - |
| 1777982124 | 15° C | 78% | 1007.7 hPa | 0 mm | - | 45 W/m² | - |
| 1777981822 | 15° C | 79% | 1008 hPa | 0 mm | - | 44 W/m² | - |
| 1777981519 | 15° C | 79% | 1007.9 hPa | 0 mm | - | 48 W/m² | - |
| 1777981215 | 15° C | 78% | 1007.9 hPa | 0 mm | - | 51 W/m² | - |
| 1777980912 | 15° C | 78% | 1007.9 hPa | 0 mm | - | 46 W/m² | - |
| 1777980609 | 15° C | 79% | 1008 hPa | 0 mm | - | 40 W/m² | - |
| 1777980305 | 15° C | 78% | 1007.7 hPa | 0 mm | - | 23 W/m² | - |
| 1777980003 | 14.44° C | 79% | 1007.7 hPa | 0 mm | - | 37 W/m² | - |
| 1777979702 | 14.44° C | 82% | 1007.8 hPa | 0 mm | - | 19 W/m² | - |
| 1777979398 | 14.44° C | 80% | 1007.8 hPa | 0 mm | - | 6 W/m² | - |
| 1777979095 | 14.44° C | 80% | 1007.6 hPa | 0 mm | - | 29 W/m² | - |
| 1777978792 | 14.44° C | 81% | 1007.7 hPa | 0 mm | - | 23 W/m² | - |
| 1777978488 | 13.89° C | 82% | 1007.4 hPa | 0 mm | - | 27 W/m² | - |
| 1777978184 | 13.33° C | 84% | 1007.7 hPa | 0 mm | - | 18 W/m² | - |
| 1777977882 | 13.33° C | 86% | 1007.5 hPa | 0 mm | - | 13 W/m² | - |
| 1777977578 | 13.33° C | 86% | 1007.2 hPa | 0 mm | - | 13 W/m² | - |
| 1777977276 | 13.33° C | 88% | 1007.4 hPa | 0 mm | - | 10 W/m² | - |
| 1777976973 | 13.33° C | 86% | 1007.3 hPa | 0 mm | - | 9 W/m² | - |
| 1777976670 | 13.89° C | 86% | 1007.2 hPa | 0 mm | - | 5 W/m² | - |
| 1777976367 | 13.33° C | 87% | 1007.2 hPa | 0 mm | - | 4 W/m² | - |
* Rain latest hour (hover to see other rain measurements)
** Current wind speed in m/s (hover to see current wind gust speed)